Location: Easthampton
(42.2676°N, 72.6690°W)
Time: 05:19:10
(UTC+00:00)

N. Korean satellite - Pass Details

Date: 09 December 2022
Orbit: 407 x 444 km, 97.3° (Epoch: 28 January)

Event Time Altitude Azimuth Distance (km) Brightness Sun altitude
Rises 09:36:23 0° 23° (NNE) 2,488 10.4 -27.2°
Reaches altitude 10° 09:38:38 10° 35° (NE) 1,600 9.5 -26.7°
Maximum altitude 09:41:39 28° 96° (E) 866 8.4 -26.2°
Drops below altitude 10° 09:44:36 10° 158° (SSE) 1,560 9.5 -25.6°
Sets 09:46:46 0° 170° (S) 2,412 10.3 -25.3°
